Weather in Okovtsy

Russia / Tver Oblast     56°39′17″N   33°28′48″E
temp.,
°C
wind,
m/s
gust,
m/s
humid.,
%
clouds,
%
prec.,
mm/h
press.,
hPa
HPBL,
m
31 july, sat
sat3100:00+14ssw389291 0.0 1003137
03:00+14sw310877 0.0 1003214
06:00+14sw412845 0.0 1002371
09:00+19wsw6125691 0.0 10021317
12:00+21wsw61154100 0.0 10031750
15:00+20w511677 0.5 10041478
18:00+22w510595 0.4 10051536
21:00+16wsw23844 0.6 100662
1 august, sun
sun100:00+15sw2590100 0.0 100791
03:00+14ssw2587100 0.0 1008109
06:00+15s2984100 0.0 1008195
09:00+15ssw31095100 1.4 1008389
12:00+16sse31097100 1.8 1008344
15:00+20sw5984100 2.3 1007974
18:00+22ssw4871100 0.3 1006752
21:00+17sw3772100 0.4 1007114
2 august, mon
mon200:00+16sw3872100 0.0 1008176
03:00+15wsw2277100 0.0 100944
06:00+16s227449 0.0 100854
09:00+21sse2456100 0.0 1006431
12:00+24s3658100 0.2 10041375
15:00+19ene1394100 5.3 1003213
18:00+20sw41191100 6.4 1000520
21:00+18sw389899 8.4 1001349
3 august, tue
tue300:00+15wnw2697100 0.1 1002446
03:00+14wnw3898100 0.1 1002420
06:00+14w3998100 0.0 1003430
09:00+14w3898100 2.4 1005400
12:00+17w3584100 0.8 1006793
15:00+21wsw365298 1.9 10061963
18:00+18wnw4874100 1.0 1007393
21:00+14w26871 1.4 1009113
4 august, wed
wed400:00+11w239325 0.0 101154
03:00+11wnw23971 0.0 101346
06:00+10wnw24972 0.0 1014114
09:00+16nw35650 0.0 1015675
12:00+20nw34434 0.0 10161768
15:00+21nw233536 0.0 10162217
18:00+20nnw2347100 0.0 1016412
21:00+14n226621 0.0 101810